GFSGBSN_con_lsi_159.txt.gz
Lid_Strength_Index
4 4 4 5 5 5 5 5 5 5 5 5 5 5 4 4 3 3 3 2 2 1 1 1 1 0 2 7 7 3 1 1 2 2 3 6 10 12 14 13 12 12 11 10 10 11 11
4 4 4 5 5 5 5 5 5 5 5 5 5 5 4 4 3 3 3 2 1 1 1 1 1 1 4 9 4 3 3 3 4 5 5 6 8 9 12 12 12 11 11 11 11 11 11
4 4 4 5 5 5 5 5 5 5 5 5 5 4 4 4 3 3 3 1 1 1 1 1 1 2 5 7 3 3 4 5 5 5 6 6 5 7 9 10 9 8 11 11 11 11 11
4 4 4 5 5 5 5 5 5 5 5 4 4 4 4 3 3 3 2 1 1 1 1 1 1 3 8 4 4 4 5 5 4 4 5 5 6 7 7 7 8 10 13 15 12 11 10
4 4 5 5 5 5 5 5 5 5 5 5 4 4 4 3 3 2 2 1 1 1 1 2 4 7 10 3 6 4 4 6 5 5 6 4 6 8 8 11 13 12 15 14 12 10 11
4 4 4 5 5 5 5 5 5 5 5 4 4 3 3 3 3 2 1 1 1 2 2 3 4 8 7 7 5 4 4 4 6 7 8 9 9 11 12 12 17 15 15 14 13 12 11
4 4 4 5 5 5 5 5 5 5 5 4 4 3 3 2 2 2 3 5 8 9 7 9 8 8 7 5 3 5 4 5 6 8 12 11 13 14 13 11 11 11 13 14 11 11 13
4 4 4 5 5 5 5 5 5 5 4 4 4 3 3 2 2 2 4 6 6 7 10 7 7 7 5 4 7 5 4 8 9 12 11 12 14 11 9 9 10 11 13 14 11 10 13
4 4 4 5 5 5 5 5 5 4 4 4 4 3 3 2 2 4 5 4 4 6 11 9 7 7 7 6 8 7 6 7 9 10 10 13 11 8 9 10 12 12 13 13 13 10 12
4 4 4 4 5 5 5 5 5 4 4 4 4 3 2 2 5 6 5 4 4 7 16 10 8 6 5 6 9 5 5 6 8 10 10 11 9 9 10 11 10 14 9 11 12 13 17
3 4 4 4 5 5 5 5 5 4 4 4 3 3 2 3 7 7 4 5 6 8 21 9 7 3 5 7 7 7 5 7 10 10 10 12 11 11 11 11 9 12 9 10 11 13 15
3 3 4 4 5 5 5 5 5 4 4 4 3 3 3 4 7 5 5 5 7 16 19 12 8 8 8 7 7 6 6 6 6 9 9 10 7 9 10 8 9 8 10 11 11 13 18
3 3 3 4 5 5 5 5 5 4 4 4 4 3 4 4 6 5 5 7 15 17 10 12 11 9 10 10 10 9 10 10 12 15 15 11 11 8 8 11 9 10 14 19 20 19 19
3 3 3 3 4 5 5 5 5 5 4 4 4 4 4 3 5 5 7 11 17 13 13 9 10 10 12 11 11 10 11 13 10 11 13 15 17 11 8 10 12 13 14 19 23 21 18
2 3 3 3 4 5 5 5 5 5 5 4 5 6 5 3 4 5 9 15 15 13 10 11 11 13 13 11 11 12 12 12 11 10 15 15 14 9 8 8 10 13 16 12 16 16 18
2 3 3 3 4 5 5 5 5 5 5 5 9 7 6 4 4 7 11 13 12 9 9 10 14 12 15 13 13 13 13 10 10 9 9 12 16 10 9 8 9 11 10 17 16 20 20
2 2 3 3 4 5 5 5 5 5 5 5 8 8 6 5 5 9 15 12 10 7 8 11 12 13 13 13 12 12 13 10 8 9 8 10 13 13 10 13 14 13 15 14 15 16 19
2 2 3 3 4 4 5 5 5 5 6 7 11 12 6 6 11 12 15 11 7 8 7 9 10 13 13 12 12 13 13 11 7 8 11 10 13 16 14 10 9 11 13 13 16 17 16
2 2 3 3 4 4 5 5 5 5 6 8 12 11 7 7 15 14 11 10 8 9 9 10 11 10 10 12 14 12 11 7 7 8 10 10 14 18 17 13 11 13 12 12 13 14 16
2 2 2 3 3 4 5 5 5 5 6 10 12 14 11 11 11 13 13 12 12 7 9 8 9 9 10 12 10 12 12 8 7 7 7 8 13 15 18 15 13 15 13 11 14 17 17
2 2 2 2 3 4 5 5 5 5 6 10 12 14 12 15 13 12 13 11 12 12 8 9 10 10 11 14 13 13 11 10 8 8 9 10 15 13 12 12 12 13 13 12 13 13 16
2 3 3 3 3 4 5 5 5 5 6 9 12 13 12 11 11 12 12 12 12 11 10 11 12 10 10 12 12 13 11 11 11 9 11 10 15 13 14 12 12 14 11 11 11 13 13
3 3 3 3 3 4 5 5 5 5 7 12 11 11 11 12 13 14 14 12 12 11 9 8 9 11 11 10 9 8 8 8 9 11 12 12 14 15 17 13 13 16 13 11 12 12 12
3 3 2 3 3 4 5 5 5 5 7 9 12 9 12 14 12 12 11 10 11 11 11 8 8 11 9 7 7 7 8 8 9 9 10 12 13 14 17 15 20 12 9 9 11 11 11
3 3 3 3 3 3 4 5 5 5 5 9 11 11 10 13 12 11 10 10 10 10 9 9 7 8 8 9 11 14 13 12 11 10 11 10 13 16 17 18 14 11 11 12 13 13 10
3 3 4 4 3 3 4 5 5 6 5 10 11 7 9 10 13 10 11 10 12 12 11 9 7 7 9 11 12 16 17 15 15 13 10 10 11 14 15 18 20 13 10 8 9 15 9
3 4 4 4 4 3 4 5 5 6 6 7 9 10 11 10 10 10 12 12 10 11 13 10 8 8 9 14 14 15 16 12 16 16 15 14 14 16 16 17 14 11 9 8 15 14 9
4 4 4 4 4 4 4 5 5 6 6 7 9 9 10 11 10 8 7 10 10 11 13 10 9 9 11 14 14 14 14 13 14 12 13 14 15 16 15 17 19 8 9 13 10 8 8
5 5 5 5 4 4 4 5 5 6 6 6 12 8 9 10 11 8 7 6 6 7 10 10 9 9 9 14 13 11 13 14 13 16 10 15 13 14 14 14 9 7 8 7 7 8 8

GFSGBSN_con_lsi_162.txt.gz
Lid_Strength_Index
4 4 4 4 4 5 5 5 5 5 5 5 5 5 4 4 4 4 3 3 2 2 1 1 1 1 3 7 8 4 -0 1 2 3 3 6 9 11 13 13 12 13 11 10 10 10 12
4 4 4 4 5 5 5 5 5 5 5 5 5 5 4 4 4 3 3 2 2 1 1 1 1 1 4 9 4 4 3 3 4 5 4 6 8 9 12 13 13 11 11 10 11 11 11
4 4 4 4 4 5 5 5 5 5 5 5 5 4 4 4 3 3 3 2 2 1 1 1 1 2 6 7 4 4 4 5 4 5 6 6 5 8 9 11 9 9 12 11 11 11 11
4 4 4 4 4 5 5 5 5 5 5 5 4 4 4 3 3 3 2 2 1 0 1 1 2 4 8 4 4 5 5 5 4 4 5 5 6 8 8 8 9 11 12 16 12 10 10
4 4 4 4 4 5 5 5 5 5 5 5 4 4 4 3 3 2 2 2 1 1 2 2 5 8 11 4 6 5 5 6 5 5 6 4 6 8 8 12 14 13 16 15 13 10 10
4 4 4 4 4 5 5 5 5 5 5 4 4 4 4 3 2 2 2 2 1 2 2 3 4 9 8 7 5 4 4 5 6 7 9 9 10 11 12 14 18 16 15 14 14 11 10
3 4 4 4 5 5 5 5 5 4 4 4 4 4 3 3 2 2 4 6 7 9 7 9 8 8 7 5 4 5 4 5 7 9 13 12 14 15 13 12 11 12 13 14 12 9 12
3 3 4 4 4 5 5 5 4 4 4 4 4 4 3 3 2 2 6 7 6 6 11 7 7 7 5 5 8 6 4 9 10 13 11 13 15 11 9 10 11 12 14 14 11 9 11
2 3 3 4 4 5 5 5 4 4 4 4 4 4 3 3 2 5 7 5 3 6 12 9 7 8 7 6 8 8 6 8 10 12 12 14 12 10 10 11 12 12 14 14 14 11 10
2 2 3 3 4 4 5 5 4 4 4 4 4 3 3 3 5 6 7 5 4 7 16 11 9 7 6 6 9 5 5 7 9 12 11 12 10 10 11 12 11 15 11 10 12 13 17
2 2 2 3 3 4 5 5 5 4 4 4 4 3 3 3 7 7 5 6 6 8 21 9 8 3 4 8 7 7 5 7 10 10 10 13 11 11 12 11 9 12 10 10 11 13 14
2 2 2 3 3 4 5 5 5 4 4 4 4 3 3 5 7 6 6 6 7 15 19 12 8 8 9 8 8 6 6 6 7 9 10 10 8 9 10 9 9 8 10 11 13 13 19
2 2 2 3 3 4 4 5 5 5 4 4 4 4 5 5 6 5 6 8 15 17 10 12 11 9 10 11 10 9 10 11 13 15 14 11 11 9 8 11 10 10 15 20 21 20 21
2 2 2 3 3 3 4 5 5 5 5 5 5 5 4 4 5 5 8 11 17 13 12 9 10 10 12 10 11 10 11 13 10 11 14 15 17 11 8 10 12 12 14 19 23 22 19
2 2 2 2 3 3 4 5 5 5 5 5 6 7 7 5 4 6 9 15 15 13 10 11 11 13 13 11 11 11 12 13 11 10 15 16 15 9 8 8 9 13 16 12 17 16 18
2 2 2 2 3 3 4 5 5 5 5 5 10 8 8 6 5 7 11 13 12 9 8 10 14 12 15 13 13 13 13 10 11 9 10 12 16 11 9 8 9 11 10 17 16 21 19
2 2 2 2 3 3 4 5 5 5 6 6 10 10 8 7 6 10 16 14 10 7 8 11 12 13 13 13 12 13 12 10 9 9 9 11 13 13 11 13 13 14 15 14 14 16 19
2 2 2 2 2 3 4 5 5 5 6 7 11 14 8 8 12 14 16 11 8 8 7 9 9 11 13 12 13 12 13 11 7 8 12 10 12 16 14 10 9 11 13 12 18 17 17
2 2 2 2 2 3 4 5 5 5 6 8 13 12 9 9 16 15 12 11 9 10 9 10 10 10 10 13 14 12 11 8 7 9 11 10 14 18 17 13 11 13 12 12 13 14 17
2 2 2 2 2 3 4 5 5 5 6 11 13 15 12 12 12 14 15 13 12 9 9 8 9 9 10 12 11 13 12 9 8 7 6 8 13 15 18 15 13 15 13 13 13 17 16
2 2 2 2 2 2 3 5 5 6 6 11 13 15 13 15 14 14 14 13 13 13 10 9 10 10 12 14 13 13 11 10 8 7 9 10 15 14 13 12 12 13 13 13 14 14 16
2 2 2 2 2 2 3 5 5 6 6 11 13 13 12 13 12 14 14 14 13 12 12 11 12 11 11 12 12 13 11 11 12 10 10 10 14 13 15 12 13 14 13 12 12 12 13
2 2 2 2 2 3 4 5 5 5 8 13 13 12 10 13 14 15 15 13 12 11 11 10 10 11 12 11 9 9 8 8 9 11 11 12 13 15 17 13 14 17 14 12 12 12 13
2 3 2 3 3 3 4 5 5 5 7 9 11 10 13 15 14 13 12 11 11 11 12 10 9 11 9 8 8 7 8 8 9 9 9 12 12 14 17 15 21 13 10 11 12 12 11
2 3 3 3 4 4 4 4 5 6 6 9 9 10 11 14 13 12 11 11 10 11 12 10 9 8 8 10 11 13 13 12 11 10 11 11 12 15 18 18 15 12 12 12 13 14 10
3 4 4 3 4 5 4 4 5 6 5 9 9 8 10 13 14 10 12 11 13 13 12 10 8 7 8 12 12 16 17 15 15 13 10 10 10 14 16 19 20 12 10 8 9 16 9
4 4 4 4 4 4 4 4 5 5 6 7 9 10 12 13 11 11 13 14 11 13 13 12 10 9 9 14 14 15 16 12 16 15 15 14 14 16 16 17 15 11 9 8 15 15 9
5 5 5 5 5 4 4 4 4 5 5 8 9 9 10 12 12 9 9 11 11 12 14 11 10 10 9 13 14 13 14 13 14 12 14 15 15 16 15 17 18 9 9 13 10 8 8
5 5 6 6 5 5 4 4 4 5 5 6 10 8 8 11 13 10 8 7 7 8 11 11 11 9 8 11 14 11 13 13 13 16 10 15 12 14 13 14 9 7 8 7 6 8 7

GFSGBSN_con_lsi_165.txt.gz
Lid_Strength_Index
4 4 4 4 4 4 4 5 5 5 5 5 5 5 5 4 4 4 3 3 2 2 2 1 1 1 3 7 7 3 1 1 2 1 3 4 5 7 9 8 8 9 8 8 8 8 8
4 4 4 4 4 4 4 4 4 5 5 5 5 5 4 4 4 3 3 3 2 2 1 1 1 1 5 9 3 3 3 3 3 3 3 3 4 5 7 8 9 8 8 8 7 8 8
4 4 4 4 4 4 5 5 4 5 5 4 4 4 4 4 3 3 3 2 2 2 1 1 2 3 6 6 2 2 2 4 3 3 5 3 3 5 6 8 6 7 10 9 8 7 9
3 4 4 4 4 4 5 5 5 4 5 4 4 4 4 4 3 3 2 2 2 1 1 1 2 3 7 2 2 3 3 3 3 3 4 3 4 5 5 5 7 9 9 12 9 8 7
3 3 3 3 4 4 5 5 5 4 4 4 4 4 4 4 3 3 2 2 1 2 1 1 3 5 8 3 5 3 2 4 4 4 4 3 5 6 6 8 10 9 13 12 11 7 8
2 2 3 3 3 4 4 4 4 5 4 4 4 4 4 4 3 3 3 2 2 2 2 2 4 7 6 6 4 3 2 3 5 5 6 7 6 8 8 9 14 12 12 11 11 9 8
2 2 2 3 3 4 4 4 4 4 4 4 4 4 4 4 3 3 3 4 5 6 5 8 7 7 6 4 3 4 3 5 5 7 10 9 10 11 10 9 9 10 11 12 10 8 9
2 2 2 2 3 3 4 4 5 4 4 4 4 4 4 4 3 3 4 4 5 4 9 6 6 6 5 5 7 6 3 7 8 10 9 10 12 9 8 9 10 10 11 11 9 8 9
2 2 2 2 3 3 3 4 5 5 4 4 4 4 4 4 3 4 4 4 3 3 8 8 7 7 6 5 7 6 4 6 8 10 10 11 10 8 9 10 11 11 12 11 11 9 8
1 1 2 2 3 3 3 4 5 5 4 4 4 4 4 4 5 4 4 3 3 3 10 9 8 6 6 6 7 4 3 5 8 10 9 10 8 9 10 11 10 13 9 10 10 11 14
1 1 2 2 3 3 3 4 5 5 5 5 4 4 4 5 5 5 4 3 4 4 17 8 7 3 4 6 6 6 3 5 9 9 9 11 10 10 10 10 9 11 8 10 10 11 12
1 1 2 2 2 3 3 4 5 5 5 5 4 4 4 5 5 4 4 4 4 11 18 11 7 8 8 7 7 5 6 4 5 8 8 9 7 8 9 8 8 7 9 10 10 11 16
1 2 2 2 2 3 3 3 4 5 5 5 4 4 5 5 5 4 4 5 11 16 9 11 10 9 9 10 9 8 9 11 12 14 14 10 10 8 7 9 8 8 11 15 17 17 16
2 2 2 2 2 3 3 3 4 5 5 5 5 5 4 4 4 3 5 7 16 12 12 8 9 9 11 10 10 10 10 12 10 11 12 14 15 10 7 9 10 10 12 15 19 17 14
2 2 2 2 3 3 3 3 4 5 6 6 6 4 5 5 3 4 6 13 13 11 9 10 10 13 12 10 11 11 11 11 10 10 14 15 14 8 8 7 8 10 13 10 16 14 14
2 2 2 2 2 2 3 4 4 5 5 6 7 6 6 5 3 4 8 12 10 8 7 9 14 12 15 12 13 12 12 9 10 9 7 10 14 10 9 7 7 9 8 14 14 19 17
2 2 2 2 2 3 3 3 4 5 6 6 7 7 5 5 4 7 11 11 9 7 6 10 11 13 13 13 12 12 12 9 8 9 8 9 12 12 9 11 11 11 12 11 12 15 15
2 2 2 2 2 3 3 3 4 5 6 7 8 11 6 5 10 10 10 10 8 8 6 8 9 10 12 12 13 13 13 10 7 7 11 9 11 14 13 9 8 9 10 11 14 15 14
3 2 2 2 2 3 3 4 5 6 6 8 10 10 6 6 13 12 10 10 9 9 8 8 9 9 9 12 14 12 11 7 7 8 10 9 12 17 16 13 10 12 10 10 11 13 16
3 2 2 2 2 3 3 4 5 6 6 8 10 12 9 9 10 11 12 12 11 8 8 7 8 8 9 12 11 13 12 9 7 7 7 8 11 14 18 15 12 14 11 10 12 15 14
3 2 2 2 2 3 3 4 5 6 6 8 10 12 11 12 11 11 11 11 12 12 8 8 9 9 10 14 13 13 12 11 9 7 8 10 14 12 11 11 12 12 12 12 13 12 15
2 2 2 2 3 3 4 4 5 6 6 8 10 11 9 11 11 11 12 11 12 11 11 10 10 8 10 12 12 13 12 13 12 9 10 9 14 12 13 13 13 14 12 12 12 11 12
3 2 2 2 3 4 4 4 6 5 7 10 9 8 10 12 12 12 12 11 11 10 9 8 9 9 10 9 9 9 9 8 9 10 11 11 12 14 17 13 14 16 13 12 11 10 11
2 2 2 2 3 4 4 4 6 5 6 8 9 9 11 13 12 12 11 10 10 10 11 9 8 9 7 6 7 7 7 8 8 9 8 12 12 13 17 15 20 13 9 9 10 10 9
4 3 3 3 3 4 5 4 5 6 6 7 8 9 10 13 12 11 10 10 9 9 9 9 7 6 5 7 10 12 13 12 11 9 9 9 11 15 18 18 15 12 11 12 12 13 9
3 4 4 3 4 4 4 4 5 5 6 7 7 7 8 12 12 10 11 10 11 11 9 8 6 5 5 8 11 15 17 15 14 12 8 9 10 14 16 19 20 13 10 8 9 16 9
4 4 4 3 5 5 5 4 4 5 5 6 7 7 8 12 10 9 10 11 9 10 11 9 8 7 5 10 13 14 16 12 16 15 14 13 13 15 16 17 14 10 9 8 15 15 9
4 4 4 4 5 6 5 4 4 4 5 6 7 7 8 10 10 9 8 9 9 9 11 8 7 7 9 12 12 12 14 13 14 12 13 15 15 16 14 16 18 8 9 13 10 8 7
4 4 5 6 6 6 5 4 4 4 5 6 8 7 7 9 10 7 8 7 8 7 9 8 7 8 8 10 10 10 13 12 13 16 9 15 12 14 14 14 9 7 8 7 7 7 7

GFSGBSN_con_lsi_168.txt.gz
Lid_Strength_Index
3 3 3 3 4 4 4 4 4 5 5 4 4 4 4 4 4 4 3 3 3 2 2 1 1 1 2 4 5 2 1 1 0 0 2 3 5 6 7 6 6 7 6 6 6 7 7
3 3 3 3 4 4 4 4 4 4 4 4 4 4 4 4 4 4 3 3 2 2 2 1 1 1 3 7 2 1 2 2 1 1 2 3 4 4 5 6 6 6 6 6 6 6 6
2 3 3 3 3 3 4 4 4 4 4 4 4 4 4 4 4 3 3 2 2 2 1 1 1 2 5 5 1 1 1 2 2 2 3 3 3 4 4 6 4 5 7 7 6 6 6
2 2 2 3 3 3 4 4 4 4 4 4 4 4 4 4 4 3 3 3 2 2 2 2 1 2 6 2 0 1 1 2 1 2 2 2 2 4 4 4 5 7 7 10 7 7 6
2 2 2 2 2 3 3 4 4 5 4 4 4 4 4 4 4 3 3 3 2 2 2 1 2 3 6 2 3 2 1 3 3 2 1 2 3 5 5 7 8 7 10 10 9 6 7
1 1 2 2 2 2 3 3 4 4 5 4 4 4 4 4 4 3 3 3 1 2 1 1 2 5 4 6 3 3 1 3 4 4 4 5 5 7 7 8 12 10 10 9 10 8 7
1 1 1 2 2 2 3 3 4 4 4 4 4 5 4 4 4 4 3 1 3 4 3 5 5 6 5 3 2 3 2 3 4 4 7 6 8 10 8 7 8 8 9 10 8 7 8
1 1 1 2 2 2 2 3 3 4 4 4 5 5 4 4 4 4 2 3 3 3 6 4 4 5 4 3 5 4 2 5 5 8 7 8 10 8 7 7 8 8 10 9 8 7 7
1 1 1 2 2 2 2 3 3 3 4 5 5 4 4 4 4 3 2 3 1 2 6 5 4 5 4 3 5 5 3 4 6 8 9 10 9 8 9 8 9 9 10 9 9 8 7
1 1 1 2 2 2 2 3 3 3 4 5 5 4 4 4 4 2 2 1 1 1 9 8 6 5 4 4 7 3 3 4 6 8 8 8 6 8 8 10 9 11 8 9 9 10 11
1 1 2 2 2 3 3 3 3 3 4 5 5 4 4 5 2 3 2 0 1 2 15 7 6 2 3 6 5 5 3 4 8 8 7 9 9 9 9 8 7 9 8 9 9 9 10
1 1 2 2 2 2 3 3 3 3 4 5 5 4 4 3 1 2 1 1 2 11 16 9 6 7 7 6 6 5 5 4 4 8 7 8 6 7 7 7 7 7 8 8 8 9 13
1 2 2 2 2 2 3 3 3 3 4 5 5 5 4 2 3 1 1 3 10 13 7 10 9 7 8 8 8 8 8 9 11 14 12 9 9 7 6 8 7 7 9 13 14 14 14
2 2 2 2 3 3 3 3 3 4 5 5 6 6 5 3 1 1 2 6 13 10 10 7 8 8 10 8 9 8 9 10 9 10 12 13 15 9 7 8 9 9 9 12 17 15 13
2 2 2 2 3 3 3 3 3 4 5 6 6 1 2 3 1 2 5 11 11 10 8 9 8 11 10 9 10 10 10 10 9 9 12 12 13 7 7 6 7 9 11 8 13 11 12
2 2 2 2 3 3 3 3 4 4 5 6 4 3 4 3 1 3 7 12 9 7 7 7 12 11 13 12 13 11 11 8 9 7 6 10 13 8 7 6 6 8 7 12 12 16 15
2 2 2 2 3 3 3 3 4 4 6 6 4 6 4 3 2 6 10 10 8 7 6 9 9 12 11 13 12 13 12 8 7 8 7 8 10 10 9 9 10 9 11 9 9 11 14
3 2 2 2 2 3 3 3 4 5 6 6 5 8 4 3 8 7 10 10 8 7 6 6 7 8 10 11 13 13 13 10 7 7 10 8 10 13 10 7 6 8 9 9 13 13 11
2 2 2 2 2 3 3 4 4 5 7 6 7 6 3 3 9 9 9 10 8 8 7 7 8 7 7 11 14 12 11 8 7 9 10 9 12 15 14 12 9 10 9 8 9 9 13
3 2 2 2 2 3 3 4 5 6 6 6 7 9 6 5 6 9 10 10 10 7 8 6 7 6 8 10 9 12 12 10 8 8 7 8 11 12 16 15 13 13 11 9 10 13 12
2 2 2 2 2 3 3 3 4 6 6 6 7 8 8 10 8 8 8 9 10 11 8 7 7 7 9 13 12 13 12 12 10 8 8 10 14 11 11 10 11 11 10 10 11 10 12
2 2 2 3 3 3 4 3 4 6 7 5 8 9 7 8 7 8 10 9 10 9 9 9 8 7 8 11 11 13 11 12 11 9 10 9 14 11 12 12 13 13 10 9 9 9 9
2 2 3 3 3 3 4 4 4 6 6 6 6 5 8 9 9 9 9 9 9 8 8 7 8 7 8 7 7 7 8 8 8 10 10 11 12 13 16 13 13 17 11 10 9 8 8
2 3 3 3 3 3 4 4 4 6 6 5 6 7 8 10 9 9 9 7 8 8 9 7 6 7 5 3 4 6 7 8 8 8 8 12 13 14 17 15 20 13 7 8 9 8 7
3 3 3 3 3 3 4 4 3 6 6 5 4 6 7 10 9 8 8 7 6 7 7 7 5 4 3 5 9 11 10 11 10 9 9 9 12 15 17 17 15 13 11 11 10 10 7
3 3 3 3 3 4 5 4 3 5 6 5 5 5 7 9 8 7 8 7 8 8 7 6 4 2 4 7 9 14 17 14 14 11 7 8 10 14 16 19 21 14 10 8 8 15 9
3 3 3 3 4 4 5 5 4 4 5 5 6 4 7 9 7 7 7 7 7 8 8 6 5 5 4 9 11 13 15 12 16 15 13 13 12 15 16 17 15 11 8 7 17 15 8
3 3 3 3 4 4 5 5 5 4 5 5 6 5 7 9 8 6 6 7 6 7 9 6 6 6 7 11 11 11 14 12 13 12 13 14 15 16 15 17 19 8 9 13 10 8 8
2 3 3 4 4 4 5 5 5 5 5 5 7 5 6 10 8 5 5 4 4 5 6 5 6 7 7 9 9 9 12 12 12 16 9 15 12 14 13 14 9 8 8 8 7 8 7